Abilene Dyess, TX

11:48 AM CST on November 22, 2019 (GMT -0600)
Dyess Air Force Base

Weather History for KDYS - July, 2019

Change the Weather History Date:

Saturday, July 13, 2019

  Actual Average Record
Temperature  
Mean Temperature 76 °F -  
Max Temperature 89 °F 94 °F 105 °F (2004)
Min Temperature 64 °F 72 °F 64 °F (2019)
Cooling Degree Days 12    
Growing Degree Days 26 (Base 50)    
Moisture  
Dew Point 58 °F    
Average Humidity 50    
Maximum Humidity 77    
Minimum Humidity 33    
Precipitation  
Precipitation 0.00 in - - ()
Sea Level Pressure  
Sea Level Pressure 29.85 in    
Wind  
Wind Speed 5 mph (NE)    
Max Wind Speed 16 mph    
Max Gust Speed 22 mph    
Visibility 10 miles    
Events      
Averages and records for this station are not official NWS values.
T = Trace of Precipitation, MM = Missing Value Source: NWS Daily Summary

Daily Weather History Graph

Daily Weather History Graph

Search for Another Location

Airport or City:

Astronomy

Jul. 13, 2019 Rise Set
Actual Time 6:41 AM CDT 8:48 PM CDT
Civil Twilight 6:13 AM CDT 9:16 PM CDT
Nautical Twilight 5:39 AM CDT 9:50 PM CDT
Astronomical Twilight 5:03 AM CDT 10:26 PM CDT
Moon 6:14 PM CDT (7/13) 3:59 AM CDT (7/13)
Length of Visible Light 15h 02m
Length of Day
14h 06m
Waxing Gibbous, 90% of the Moon is Illuminated
Jul 13
Waxing Gibbous
Jul 16
Full
Jul 24
Last Quarter
Jul 31
New
Aug 7
First Quarter

Hourly Weather History & Observations

Time (CDT) Temp. Heat Index Dew Point Humidity Pressure Visibility Wind Dir Wind Speed Gust Speed Precip Events Conditions
12:56 AM 70.3 °F - 57.9 °F 65% 29.82 in 10.0 mi SSW 3.5 mph - N/A   Clear
1:56 AM 72.7 °F - 57.6 °F 59% 29.83 in 10.0 mi Calm Calm - N/A   Clear
2:56 AM 70.7 °F - 57.0 °F 62% 29.82 in 10.0 mi Calm Calm - N/A   Clear
3:56 AM 68.0 °F - 57.0 °F 68% 29.82 in 10.0 mi Calm Calm - N/A   Clear
4:56 AM 65.7 °F - 57.2 °F 74% 29.83 in 10.0 mi Calm Calm - N/A   Clear
5:56 AM 64.9 °F - 57.6 °F 77% 29.84 in 10.0 mi Calm Calm - N/A   Clear
6:56 AM 65.5 °F - 58.1 °F 77% 29.86 in 10.0 mi NW 3.5 mph - N/A   Clear
7:56 AM 70.3 °F - 59.7 °F 69% 29.86 in 10.0 mi NNW 3.5 mph - N/A   Clear
8:56 AM 75.2 °F - 60.3 °F 60% 29.88 in 10.0 mi Calm Calm - N/A   Clear
9:56 AM 79.3 °F - 60.1 °F 52% 29.88 in 10.0 mi NW 3.5 mph - N/A   Clear
10:56 AM 81.9 °F 82.1 °F 59.0 °F 46% 29.88 in 10.0 mi Calm Calm - N/A   Clear
11:56 AM 85.5 °F 84.6 °F 57.6 °F 39% 29.87 in 10.0 mi NE 12.7 mph 17.3 mph N/A   Scattered Clouds
11:57 AM 86.0 °F 84.9 °F 57.2 °F 37% 29.87 in 10.0 mi NE 11.5 mph 17.3 mph N/A   Scattered Clouds
12:56 PM 86.4 °F 85.2 °F 57.0 °F 37% 29.87 in 10.0 mi NE 11.5 mph 17.3 mph N/A   Scattered Clouds
1:48 PM 87.8 °F 86.1 °F 55.4 °F 33% 29.85 in 10.0 mi ENE 11.5 mph - N/A   Mostly Cloudy
1:56 PM 88.5 °F 87.1 °F 56.5 °F 34% 29.85 in 10.0 mi NE 16.1 mph 21.9 mph N/A   Mostly Cloudy
1:59 PM 87.8 °F 86.5 °F 57.2 °F 35% 29.85 in 10.0 mi North 11.5 mph 21.9 mph N/A   Mostly Cloudy
2:45 PM 87.8 °F 87.1 °F 59.0 °F 38% 29.85 in 10.0 mi NE 13.8 mph 20.7 mph N/A   Mostly Cloudy
2:56 PM 88.7 °F 87.8 °F 58.3 °F 36% 29.85 in 10.0 mi NE 15.0 mph - N/A   Scattered Clouds
3:46 PM 89.6 °F 88.1 °F 57.2 °F 33% 29.84 in 10.0 mi ENE 12.7 mph 19.6 mph N/A   Mostly Cloudy
3:56 PM 89.1 °F 87.7 °F 57.0 °F 34% 29.84 in 10.0 mi ENE 10.4 mph 19.6 mph N/A   Mostly Cloudy
4:56 PM 88.7 °F 87.5 °F 57.6 °F 35% 29.84 in 9.0 mi NNE 10.4 mph - N/A   Scattered Clouds
5:56 PM 88.3 °F 87.1 °F 57.2 °F 35% 29.83 in 10.0 mi NE 8.1 mph - N/A   Scattered Clouds
6:56 PM 87.8 °F 86.3 °F 55.9 °F 34% 29.83 in 10.0 mi NE 9.2 mph - N/A   Clear
7:56 PM 85.5 °F 84.6 °F 57.6 °F 39% 29.82 in 10.0 mi East 6.9 mph - N/A   Clear
8:56 PM 81.3 °F 81.7 °F 59.2 °F 47% 29.83 in 10.0 mi East 4.6 mph - N/A   Haze
9:56 PM 77.0 °F - 60.6 °F 57% 29.83 in 10.0 mi Calm Calm - N/A   Haze
10:56 PM 75.4 °F - 61.0 °F 61% 29.85 in 10.0 mi Calm Calm - N/A   Clear
11:56 PM 74.1 °F - 61.2 °F 64% 29.85 in 10.0 mi Calm Calm - N/A   Clear